Location: *
(37.9500°N, 27.3666°E)
Time: 04:25:47
(UTC+00:00)

Cosmos 2322 Rocket - Pass Details

Date: 24 October 2021
Orbit: 832 x 851 km, 71.0° (Epoch: 03 December)

Event Time Altitude Azimuth Distance (km) Brightness Sun altitude
Rises 16:18:22 0° 200° (SSW) 3,360 5.7 -12.0°
Reaches altitude 10° 16:20:47 10° 200° (SSW) 2,430 4.9 -12.4°
Maximum altitude 16:26:22 89° 113° (ESE) 837 2.2 -13.5°
Drops below altitude 10° 16:31:59 10° 23° (NNE) 2,449 4.4 -14.6°
Sets 16:34:26 0° 23° (NNE) 3,388 5.1 -15.1°
